Flag for Poland Weather past 2 weeks in Tarnów, Poland

Now
77 °F

Partly sunny.


Feels Like: 79 °F
Forecast: 65 / 83 °F
Wind: 2 mph from Southeast

Location: Tarnow

Current Time: Jul 29, 2014 at 10:01:14 AM

Latest Report: Jul 29, 2014 at 9:00 AM


Visibility: 16 mi

Pressure: 29.83 "Hg

Humidity: 60%

Dew point: 62 °F

Location of TarnówLocation

Historic Weather in Tarnów — Graph

°F

Tarnów temperature yesterday

Maximum temperature yesterday: 85 °F (at 3:00 PM)
Minimum temperature yesterday: 63 °F (at 4:00 AM)
Average temperature yesterday: 75 °F

Past Weeks' High & Low Weather Summary

 TemperatureHumidityPressure
High86 °F (Jul 20, 3:00 PM)98% (Jul 24, 3:00 AM)30.15 "Hg (Jul 24, 3:00 AM)
Low58 °F (Jul 20, 5:00 AM)28% (Jul 20, 2:00 PM)29.79 "Hg (Jul 21, 5:00 PM)
Average71 °F74%29.97 "Hg
* Reported Jul 14 8:00 AM — Jul 29 8:00 AM, Tarnów, Weather by CustomWeather, © 2014

Note: Actual official high and low records may vary slightly from our data, if they occured in-between our weather recording intervals... More about our weather records

Advertising

Tarnów weather history for previous 24 hours

 ConditionsComfort  
Time TempWeatherWind HumidityBarometerVisibility
8:00 AM
Jul 29
74 °FScattered clouds.1 mph67%29.84 "Hg14 mi
7:00 AM71 °FScattered clouds.1 mph77%29.84 "Hg14 mi
6:00 AM65 °FScattered clouds.No wind89%29.85 "Hg10 mi
5:00 AM63 °FPassing clouds.1 mph90%29.86 "Hg8 mi
4:00 AM63 °FPassing clouds.1 mph89%29.86 "Hg7 mi
3:00 AM66 °FClear.1 mph83%29.86 "Hg11 mi
2:00 AM66 °FClear.1 mph84%29.86 "Hg11 mi
1:00 AM66 °FClear.1 mph83%29.87 "Hg12 mi
12:00 AM67 °FClear.No wind82%29.87 "Hg11 mi
11:00 PM
Jul 28
69 °FClear.1 mph75%29.87 "Hg13 mi
10:00 PM71 °FPassing clouds.1 mph68%29.87 "Hg14 mi
9:00 PM74 °FPassing clouds.1 mph61%29.86 "Hg17 mi
8:00 PM77 °FPartly sunny.2 mph53%29.85 "Hg22 mi
7:00 PM80 °FScattered clouds.3 mph46%29.85 "Hg22 mi
6:00 PM82 °FPartly sunny.3 mph49%29.84 "Hg19 mi
5:00 PM82 °FPartly sunny.3 mph47%29.86 "Hg25 mi
4:00 PM84 °FThunderstorms. Partly sunny.5 mph41%29.85 "Hg19 mi
3:00 PM85 °FThunderstorms. Partly sunny.5 mph45%29.85 "Hg15 mi
2:00 PM84 °FPartly sunny.3 mph44%29.87 "Hg17 mi
1:00 PM85 °FScattered clouds.3 mph47%29.88 "Hg17 mi
12:00 PM82 °FPassing clouds.3 mph50%29.90 "Hg19 mi
11:00 AM81 °FPassing clouds.3 mph53%29.91 "Hg19 mi
10:00 AM80 °FPassing clouds.2 mph56%29.91 "Hg19 mi
Weather by CustomWeather, © 2014

See weather overviewHow to use our weather pages